GFSGL_sfc_rhum_132.txt.gz
RH
50 52 53 51 51 58 71 65 66 66 60 59 60 58 62 60 62 65 63 55 60 60 58 56 60 59 44 36 37 37 39 38 40 33 38 46 56 59 53 50 73 43 52
48 54 53 52 53 50 56 56 59 72 59 63 62 60 59 58 63 64 62 54 62 60 58 59 57 45 63 59 44 56 49 50 46 57 52 43 60 56 60 61 40 40 40
50 50 52 53 52 53 53 56 57 61 62 61 66 71 67 66 63 62 62 60 57 57 55 56 56 57 62 53 55 49 43 46 61 65 52 45 47 46 69 62 54 60 40
50 50 56 56 54 53 54 57 56 62 63 62 62 63 64 61 66 65 62 62 60 56 57 58 57 58 61 67 66 67 55 57 72 59 63 44 58 59 63 70 51 43 48
59 59 60 60 59 59 60 62 61 63 63 65 63 62 62 58 50 62 64 66 66 61 59 62 58 66 88 88 65 73 78 78 76 79 67 70 81 49 60 78 72 45 50
64 66 62 66 68 70 71 66 70 68 68 70 70 66 66 51 95 93 86 61 69 73 67 64 64 83 85 95 95 96 90 87 93 94 72 92 79 66 55 74 84 90 55
70 83 81 81 85 76 73 79 73 71 67 69 67 67 66 65 93 94 92 63 60 68 71 77 67 57 78 73 87 88 87 87 91 78 87 76 87 89 73 71 64 53 44
83 73 88 76 83 80 80 81 91 84 78 71 66 69 71 74 91 90 87 75 66 67 69 74 74 72 68 66 64 72 74 71 71 47 69 69 70 65 66 58 67 66 49
94 79 78 73 87 82 89 82 91 88 90 84 73 74 73 72 95 99 93 71 68 77 74 70 71 71 89 82 66 74 74 68 74 80 78 77 76 76 71 43 47 45 38
81 83 93 94 97 96 93 96 98 99 100 98 84 73 89 74 99 100 95 76 79 66 74 75 89 73 84 86 73 67 72 65 55 57 53 59 57 57 62 55 35 32 29
96 90 88 86 93 91 91 93 95 98 99 99 97 96 94 90 93 98 100 93 82 72 62 62 61 92 91 94 86 76 69 68 66 54 48 42 42 42 43 52 52 38 30
83 86 89 96 96 98 98 99 99 99 99 99 99 99 99 98 100 100 98 96 94 96 98 99 99 97 96 93 89 84 79 70 62 61 66 75 70 54 50 42 55 51 51
96 97 96 95 97 90 96 99 100 99 99 99 99 99 99 98 99 99 99 99 96 98 97 97 96 95 94 92 87 84 80 83 92 94 82 55 48 43 50 48 50 59 58
94 92 90 93 96 95 98 97 99 99 98 98 98 98 98 98 94 80 89 95 95 92 90 98 96 95 94 94 89 83 69 84 77 52 45 46 54 37 37 35 34 32 28
97 94 96 95 97 96 98 99 99 100 98 97 89 86 83 69 66 80 76 71 85 91 79 77 83 86 93 89 67 61 53 53 51 62 50 40 32 31 33 29 32 30 30
98 96 99 99 99 99 99 99 96 97 94 94 89 76 63 85 87 92 96 96 91 88 85 95 95 89 80 68 59 63 60 46 49 47 32 35 30 30 31 31 32 31 31
82 89 87 88 84 98 99 96 96 92 88 92 92 93 90 92 94 97 97 95 95 94 95 85 75 68 66 46 54 54 48 59 62 48 31 32 31 31 31 30 31 31 32
70 87 72 82 83 76 73 76 70 72 78 67 75 73 86 86 90 91 92 89 69 66 72 64 60 64 64 66 61 54 58 48 49 43 54 46 35 30 31 33 34 36 35
47 42 42 42 46 61 65 63 71 70 70 64 60 65 75 88 90 85 81 58 53 57 61 49 51 56 55 52 47 51 56 50 41 34 33 34 33 31 34 32 38 56 54
50 78 56 31 35 34 39 43 45 50 50 46 40 36 48 57 54 54 52 58 46 41 39 42 38 40 42 44 42 39 36 36 39 33 32 33 34 33 33 35 34 36 39
30 39 62 36 29 26 28 29 31 30 27 28 27 38 64 35 34 38 40 44 41 37 39 38 41 42 45 45 42 39 33 30 32 33 33 33 35 32 37 38 36 38 39
27 29 29 30 34 35 30 29 28 26 25 25 21 33 70 32 25 29 33 35 35 37 35 41 40 39 39 43 43 35 32 32 33 33 34 33 35 35 36 36 36 36 36
30 29 29 29 32 49 37 29 27 27 26 25 22 21 24 24 27 29 31 32 35 35 35 38 41 37 39 38 38 36 32 30 32 33 34 35 35 34 34 33 32 32 32
30 27 27 27 30 28 28 30 28 40 28 25 24 24 24 26 28 31 30 31 33 34 34 35 36 36 39 36 34 32 30 30 32 33 36 35 34 42 31 30 29 31 30
33 31 29 28 27 28 26 26 26 26 26 26 25 26 26 26 27 27 28 29 30 32 33 33 33 35 37 39 31 30 45 58 41 44 37 39 38 44 36 33 33 32 35
37 37 34 29 29 27 26 27 27 28 27 26 26 27 27 27 28 28 28 29 30 30 31 30 31 35 36 34 34 46 76 72 50 74 39 38 39 39 38 41 42 38 38

GFSGL_sfc_rhum_135.txt.gz
RH
45 48 50 48 49 60 56 56 59 56 56 57 58 57 56 56 57 66 65 65 70 59 58 59 56 60 45 38 35 32 33 33 36 33 34 55 58 56 54 65 50 50 54
44 50 47 47 47 46 56 56 70 65 59 60 59 60 58 56 58 64 62 52 61 55 56 59 55 42 65 65 42 60 47 53 48 68 53 48 57 57 55 76 48 35 43
45 44 45 47 46 48 57 51 66 74 67 54 60 64 62 59 62 65 67 64 59 56 53 59 54 56 64 52 60 54 57 64 60 50 56 54 77 74 70 66 72 61 40
45 43 50 50 47 45 50 52 52 60 65 62 62 68 72 62 58 58 64 68 60 53 54 54 60 68 62 64 67 74 60 60 60 69 62 82 86 55 73 85 64 61 50
52 54 57 60 58 58 61 61 57 58 59 59 59 67 70 61 50 68 65 69 72 62 59 56 54 66 90 85 72 86 83 85 91 84 88 94 93 91 93 92 78 56 65
64 60 60 63 68 70 70 71 70 65 66 66 62 61 68 48 87 80 78 65 74 77 68 67 69 83 83 92 93 96 92 89 86 62 61 78 88 90 90 94 96 83 65
67 67 67 68 72 73 73 76 76 74 79 78 69 63 68 69 94 92 90 57 57 60 68 80 74 74 80 67 90 87 85 87 92 92 88 72 75 74 82 84 82 80 60
74 74 84 69 68 71 71 72 80 82 86 89 78 73 74 71 94 91 87 73 69 63 61 64 69 73 72 73 70 66 68 69 74 71 86 83 76 70 74 66 74 69 54
88 73 91 70 85 81 79 80 89 89 86 79 95 89 78 84 93 95 94 69 63 68 68 71 80 75 84 81 68 69 70 64 67 75 76 76 75 74 70 50 62 51 52
93 83 75 94 82 81 88 92 89 87 86 93 91 83 94 88 99 100 91 65 63 76 85 80 92 83 90 83 72 69 70 66 59 69 62 77 67 68 65 60 45 40 33
97 95 92 89 95 93 93 92 94 94 95 95 94 91 92 94 96 98 100 77 79 87 75 67 58 94 96 95 86 67 67 62 75 67 61 58 54 56 57 60 66 61 60
96 98 97 98 98 98 97 98 98 99 99 99 99 99 98 96 99 99 99 98 96 97 98 98 99 99 99 96 95 91 89 84 80 87 82 83 77 74 63 64 70 67 64
97 98 97 97 97 93 91 92 92 96 98 99 99 99 100 100 99 100 100 99 97 98 99 99 98 98 98 98 95 94 92 98 98 98 93 88 74 70 65 65 67 72 66
90 88 92 91 88 88 86 86 93 92 96 98 98 98 99 99 99 99 99 99 98 98 97 99 98 98 97 97 98 97 98 99 97 97 97 92 78 67 48 47 43 41 40
93 89 84 84 76 81 91 96 93 97 88 89 80 83 94 86 70 97 89 87 91 98 94 88 89 90 93 92 88 85 83 82 73 72 74 58 47 53 38 32 34 34 36
96 93 98 98 98 96 90 91 93 93 92 91 88 68 65 84 95 99 99 96 93 91 87 93 94 92 81 72 70 68 68 63 65 63 58 54 39 55 54 41 38 43 35
96 96 97 83 87 96 95 80 80 78 88 92 95 96 97 99 99 98 96 96 98 96 98 99 98 95 97 96 94 88 59 55 71 58 55 56 53 53 37 33 34 32 33
73 84 64 67 67 71 71 70 77 63 53 54 78 74 83 89 95 100 100 99 95 96 98 92 75 68 70 69 68 66 66 62 64 58 61 59 59 52 44 35 36 36 35
48 39 39 45 51 62 60 61 57 60 58 57 51 62 75 90 92 96 97 65 64 58 56 50 51 50 52 52 45 47 47 42 40 37 36 36 35 34 35 32 36 57 54
44 66 45 31 37 37 40 41 45 49 52 52 50 40 43 58 54 62 65 55 45 40 40 39 41 40 41 43 45 42 41 40 40 37 34 34 36 32 32 34 33 34 38
32 36 63 29 27 27 30 32 34 34 31 32 29 40 59 35 34 39 39 42 40 37 40 38 40 42 43 45 44 40 34 31 33 31 31 34 35 31 36 35 35 35 36
26 28 27 28 30 32 28 27 26 26 25 26 25 41 64 36 35 30 34 36 39 37 36 42 41 42 40 41 41 36 33 30 33 32 33 33 36 33 34 36 36 36 37
27 26 26 28 30 44 33 28 25 25 24 23 21 21 20 21 22 26 29 28 31 35 37 38 41 36 38 39 37 34 32 30 32 33 33 35 34 35 36 35 34 35 34
29 26 25 25 30 29 29 30 28 39 27 23 22 21 22 23 24 26 27 28 30 31 30 34 33 33 36 36 32 32 31 28 29 32 33 34 33 39 31 31 29 30 31
31 28 28 26 25 26 26 25 25 25 24 24 23 23 22 24 24 24 25 26 28 29 30 30 30 32 35 37 32 30 44 53 37 42 33 35 35 38 33 31 32 32 34
30 41 36 28 27 27 25 25 26 26 26 26 26 26 27 26 25 26 27 27 28 28 29 28 30 32 32 33 35 48 69 66 44 72 36 36 36 36 37 39 38 37 39

GFSGL_sfc_rhum_138.txt.gz
RH
57 63 68 70 68 80 82 87 79 80 77 79 85 87 77 72 76 81 80 78 77 79 78 77 77 75 73 70 70 71 71 73 77 78 72 81 79 76 74 70 62 67 75
56 64 61 66 68 78 74 75 78 79 78 75 79 81 77 74 76 78 77 70 75 79 78 78 76 54 79 78 76 78 74 75 76 80 75 78 79 79 89 85 48 45 64
56 55 56 59 60 63 76 76 75 76 79 70 73 80 79 78 79 78 79 77 78 77 79 80 77 77 81 77 82 78 78 76 82 84 84 78 94 93 92 87 71 70 48
53 54 60 63 59 58 72 73 80 83 85 85 80 77 78 76 78 77 80 82 82 75 78 74 75 75 77 80 81 85 75 89 86 90 86 90 91 96 98 95 91 74 60
64 63 68 67 67 68 72 75 72 79 81 82 84 82 82 83 64 80 81 82 84 80 80 78 74 81 89 90 86 88 90 92 94 94 95 94 93 94 96 94 97 93 77
86 70 76 79 78 78 77 76 78 78 79 81 81 80 82 66 90 88 82 82 84 87 86 83 82 86 90 91 91 94 94 94 94 92 86 88 92 92 94 95 95 94 92
95 92 75 78 79 82 82 84 85 85 84 83 79 81 81 79 90 88 88 76 82 85 86 89 83 70 94 92 94 92 90 87 89 97 94 92 89 88 91 91 92 91 92
86 73 72 73 79 81 86 87 88 89 86 90 88 86 87 87 96 92 91 80 85 83 84 81 83 83 84 84 88 86 80 75 81 75 93 94 93 92 94 91 89 85 75
84 87 77 78 82 78 84 87 88 90 88 84 87 88 89 95 96 96 98 84 87 85 84 88 88 91 92 95 89 83 83 71 68 83 82 81 76 77 75 75 73 79 84
86 88 95 91 92 85 87 89 92 94 93 93 90 90 99 99 100 100 98 88 82 91 90 90 92 90 93 97 92 86 83 78 68 74 69 62 65 60 68 58 64 68 53
93 93 94 97 97 96 99 97 97 96 97 98 98 95 96 97 95 99 100 87 80 93 94 85 82 94 94 91 89 78 82 74 74 66 62 60 62 60 59 58 62 65 59
89 96 98 99 99 99 99 99 99 98 98 98 98 99 99 99 100 100 100 99 95 96 97 97 99 98 97 96 95 95 94 91 90 94 98 98 98 97 91 67 67 65 66
93 99 99 99 99 99 99 98 99 98 99 98 98 99 100 100 99 100 100 98 97 99 99 99 98 99 98 98 97 96 96 98 99 99 99 98 98 93 79 76 72 72 74
98 98 97 98 99 98 99 98 95 87 90 95 96 97 99 99 99 99 99 99 98 98 98 99 99 98 97 98 98 99 99 99 99 99 99 98 94 84 73 66 66 67 70
94 93 94 87 89 92 95 94 89 90 85 81 85 88 95 93 89 97 100 98 98 99 99 99 99 98 96 93 94 96 97 97 97 97 92 80 70 62 62 65 55 59 67
97 94 96 93 94 90 84 81 90 90 93 94 93 77 77 91 99 99 99 99 98 95 87 94 96 92 86 94 96 93 83 80 82 82 76 68 69 66 57 56 55 58 67
99 97 98 94 96 93 90 80 79 80 87 87 91 97 99 99 98 97 99 100 100 97 97 98 98 98 96 94 86 78 79 81 74 63 65 59 62 61 56 61 59 58 60
79 89 78 76 77 80 80 75 68 67 65 66 79 74 86 94 100 99 100 98 96 97 96 92 91 83 74 71 72 69 68 64 67 65 64 60 63 63 62 62 62 67 63
61 56 62 66 69 72 71 69 65 65 64 68 66 73 82 91 97 100 100 76 68 67 69 69 68 68 71 69 67 69 69 65 67 66 65 61 60 60 62 60 57 59 65
55 62 55 48 58 62 56 56 59 67 68 65 62 54 58 68 64 69 76 72 66 59 60 62 62 61 64 69 70 70 68 62 64 66 63 63 61 60 56 55 56 59 61
41 45 56 38 35 39 45 49 49 42 51 55 49 52 62 55 52 59 61 62 57 54 62 61 66 65 69 71 68 64 56 54 61 61 60 59 60 54 56 57 55 52 56
32 37 35 36 36 42 37 37 40 41 38 36 42 48 66 47 46 50 56 55 52 59 55 67 60 60 61 65 68 61 57 54 56 55 56 58 57 56 57 56 56 57 58
30 28 31 32 37 51 40 34 30 32 32 32 32 33 31 35 38 42 45 45 53 58 63 62 63 62 64 60 60 61 56 53 56 54 55 56 58 57 56 55 55 56 55
35 30 29 28 38 33 34 39 36 43 31 28 29 29 30 31 32 40 39 42 46 46 48 54 51 46 55 50 50 47 50 48 50 49 50 52 51 54 49 49 45 46 46
34 34 32 32 30 33 35 30 32 34 32 32 29 31 29 31 33 34 36 38 40 43 43 45 45 43 44 49 44 41 51 53 48 50 51 53 53 57 48 47 47 46 48
34 34 35 48 38 35 33 33 33 34 33 33 35 39 39 38 37 38 41 42 43 41 42 41 40 42 42 42 43 57 74 70 55 61 51 53 52 52 49 52 53 54 56

GFSGL_sfc_rhum_141.txt.gz
RH
71 76 79 84 84 90 90 85 84 83 87 90 87 88 85 85 83 89 81 87 81 85 81 81 84 80 77 81 80 83 76 78 81 90 92 93 93 86 76 75 74 82 84
68 72 71 81 88 92 87 86 85 84 87 89 88 84 84 86 84 84 85 75 85 86 82 85 84 72 83 81 83 87 90 92 84 85 84 94 95 90 93 86 56 56 73
66 71 70 78 78 89 89 90 88 88 87 88 88 89 87 88 88 87 87 86 88 88 88 89 83 83 87 86 87 90 90 84 90 92 92 93 98 96 96 85 73 66 55
72 69 68 74 70 69 74 76 91 91 90 91 88 90 88 88 87 87 88 90 91 88 89 88 87 88 83 86 85 86 89 93 92 95 94 94 95 98 98 97 88 77 70
95 92 73 69 68 78 88 86 92 91 93 90 91 89 89 90 84 91 92 92 92 91 90 89 85 86 92 94 91 90 91 94 96 96 97 95 94 98 98 99 97 96 84
98 94 93 88 87 87 89 92 91 90 93 91 92 91 89 78 84 86 91 93 91 92 92 91 89 90 92 94 93 96 94 94 94 98 98 96 94 94 96 97 99 99 98
98 98 95 92 88 89 90 90 89 90 92 91 91 92 92 93 89 86 85 91 92 93 92 93 91 83 95 94 93 92 90 87 92 96 97 97 94 97 96 93 96 97 97
98 98 97 94 91 88 90 90 93 94 92 94 94 93 93 95 96 94 92 91 92 91 90 91 92 93 95 97 97 96 71 73 88 87 96 94 94 93 97 94 93 89 66
98 98 99 97 96 96 96 93 92 95 95 96 96 95 92 98 96 95 98 98 97 96 96 92 94 96 92 97 97 88 87 84 79 80 79 77 76 79 82 93 92 85 83
92 95 97 97 98 98 98 99 99 99 99 99 99 99 99 99 100 100 100 99 96 96 98 94 95 96 98 96 97 96 93 79 69 72 63 67 64 59 68 59 61 59 61
96 95 98 98 99 98 99 99 99 99 99 99 99 99 98 98 98 100 100 99 98 99 99 96 95 93 92 90 89 82 75 67 70 68 77 82 80 70 69 67 76 81 87
97 98 99 99 99 99 99 99 98 98 99 99 99 99 99 99 99 100 100 100 97 96 98 99 99 98 98 94 85 88 87 86 90 96 98 99 99 99 98 96 96 93 86
97 99 99 99 99 100 99 100 100 99 99 100 99 100 100 99 99 99 98 98 96 99 100 99 99 100 100 99 97 96 96 98 99 99 99 99 98 97 91 84 80 73 68
99 99 99 99 99 99 99 99 99 98 97 98 99 99 99 99 100 100 99 99 98 99 98 99 99 99 98 99 99 99 99 99 98 99 99 99 98 98 97 92 82 68 66
98 98 96 92 93 96 93 91 89 88 86 92 90 90 97 96 94 99 100 99 99 100 99 99 99 99 99 100 100 99 100 99 99 98 96 90 78 69 58 61 69 69 75
99 98 98 96 91 89 86 83 89 91 93 95 93 81 94 99 99 100 100 100 100 99 91 98 99 99 98 99 99 98 90 87 88 84 79 74 69 65 60 55 52 57 63
98 99 99 98 99 96 91 88 87 81 85 93 98 99 98 98 98 99 100 100 100 96 98 99 98 97 96 95 84 80 81 81 73 79 72 66 64 58 56 57 58 59 60
96 97 97 98 92 91 88 86 84 85 86 80 79 87 98 98 99 100 100 98 98 97 97 96 94 89 85 80 77 76 73 62 64 66 63 63 64 57 64 63 68 68 62
94 96 94 93 94 92 93 87 80 80 78 79 71 78 90 98 100 100 100 98 96 98 98 96 90 88 83 76 75 75 71 70 69 69 63 59 62 61 66 60 57 66 68
68 62 82 91 94 94 93 91 90 82 84 81 79 73 82 86 91 97 99 95 92 86 87 84 83 81 80 79 80 79 80 71 71 76 71 71 67 69 71 60 56 61 73
72 64 67 65 72 71 71 80 85 88 88 86 82 71 78 81 80 82 86 86 87 84 81 79 79 80 84 83 84 79 73 68 71 70 77 74 62 60 65 66 62 65 65
66 66 64 69 59 61 59 59 57 56 67 66 71 70 80 71 69 79 80 78 76 76 72 83 82 76 81 81 80 76 76 70 68 71 71 69 65 68 67 65 67 66 57
63 54 54 64 50 60 58 59 60 57 53 60 61 60 65 64 60 60 69 67 67 72 78 74 76 76 78 75 78 73 65 64 69 68 68 66 66 67 65 63 64 68 69
60 58 53 58 66 63 64 60 57 57 54 54 54 53 52 51 49 48 57 55 67 70 74 73 70 69 72 71 70 68 67 68 66 61 63 64 65 68 67 67 65 64 66
64 58 56 56 55 54 53 50 52 60 52 48 48 43 50 49 49 59 57 62 63 68 72 71 72 64 65 63 63 64 64 73 62 65 65 63 60 62 63 67 66 64 58
62 60 65 59 66 58 58 54 52 53 51 55 49 53 58 57 55 54 59 58 62 60 62 63 62 56 58 60 53 60 76 77 64 70 61 62 67 75 62 58 60 65 63

GFSGL_sfc_rhum_147.txt.gz
RH
83 84 85 91 91 93 92 88 89 91 91 92 91 94 93 91 92 94 94 93 92 92 90 93 89 89 94 95 94 94 95 93 88 92 98 99 97 96 96 95 90 95 93
75 81 83 86 95 94 91 91 90 91 93 94 94 96 94 90 94 95 94 92 93 93 90 90 88 79 91 93 95 93 95 94 94 86 96 99 97 95 96 94 84 75 90
86 83 86 92 95 96 94 94 91 88 89 95 95 94 91 91 95 96 95 92 92 91 91 92 89 92 93 94 95 97 96 94 95 96 94 99 99 97 96 93 82 84 72
95 93 95 95 90 87 90 96 95 94 92 92 95 93 92 92 92 92 93 94 95 93 93 94 94 94 94 93 95 96 97 97 96 97 97 98 99 98 95 95 94 86 72
97 98 97 96 96 95 95 93 93 96 92 93 93 96 95 94 88 95 95 95 96 96 95 95 95 93 93 95 97 94 96 98 98 98 98 98 99 100 97 98 96 96 86
97 97 96 94 95 96 96 96 97 95 95 94 95 95 95 85 93 94 93 96 96 97 96 98 96 95 95 95 98 97 95 96 98 99 98 98 97 99 99 98 98 97 96
97 97 98 96 95 93 96 97 98 97 98 97 96 96 94 94 94 94 97 97 96 96 96 97 96 92 96 96 97 90 88 89 94 96 98 98 97 97 98 99 97 97 97
99 99 98 97 97 94 97 98 97 98 97 96 96 96 96 98 100 100 96 95 94 95 96 96 96 94 97 98 98 93 89 90 94 90 98 94 93 92 96 99 99 97 97
98 98 97 98 96 95 97 98 98 98 97 98 96 96 98 100 100 100 99 97 96 97 97 96 98 97 98 100 98 89 92 84 78 80 80 80 84 85 87 99 99 99 96
98 98 97 98 97 98 97 98 99 99 99 100 100 99 100 99 100 100 100 99 99 99 97 95 94 98 98 100 99 97 94 79 66 72 69 74 84 87 87 88 89 96 93
99 98 97 98 99 99 99 99 99 99 99 99 99 99 99 99 99 100 100 100 99 99 99 98 97 96 95 99 100 97 96 80 66 68 75 82 82 80 83 86 93 82 93
99 98 99 99 99 99 98 99 99 99 99 99 99 99 99 99 99 100 100 100 99 99 99 99 98 97 97 96 99 96 88 83 87 96 98 98 97 96 95 94 95 96 98
99 99 99 99 99 99 99 99 100 99 100 100 100 99 100 100 100 99 99 98 96 99 99 99 99 99 98 97 96 97 96 99 99 99 100 99 98 98 94 92 89 87 87
99 99 99 99 99 98 99 99 100 100 100 100 100 100 100 100 100 100 99 100 99 99 99 99 99 99 99 99 98 99 99 99 99 99 99 99 99 96 93 91 92 85 84
99 99 98 91 90 89 87 84 78 88 99 100 100 100 100 100 100 100 100 100 99 100 99 98 99 100 99 100 100 99 99 99 99 99 97 94 86 81 79 82 78 77 74
99 98 99 93 84 80 78 81 92 96 97 97 98 98 100 100 100 100 100 100 100 100 96 98 100 99 99 100 100 100 100 98 98 90 85 85 80 72 64 73 72 65 73
99 99 99 99 97 90 83 80 83 82 92 98 100 100 100 100 100 100 100 100 100 97 98 98 98 98 98 99 96 91 93 88 80 75 75 78 76 74 73 66 68 76 78
94 98 98 98 98 92 90 96 96 97 97 97 98 99 100 100 100 100 100 100 97 97 98 95 95 93 90 85 83 78 75 73 79 76 76 75 74 65 68 74 76 73 77
96 98 98 99 97 95 96 95 95 96 96 90 86 94 99 100 100 100 100 98 98 98 98 97 93 89 92 88 87 87 78 78 77 77 75 74 77 71 76 74 80 81 84
97 96 98 98 99 98 98 97 93 93 93 84 80 87 98 100 99 99 99 98 97 97 98 97 97 96 95 90 84 83 81 77 80 77 75 76 73 78 73 66 67 77 89
84 92 94 97 98 98 97 97 95 93 95 94 86 80 85 88 88 94 97 97 95 95 96 97 97 97 93 88 86 85 82 80 76 77 80 86 81 77 81 72 71 79 85
93 76 87 89 86 96 97 97 98 98 97 95 95 93 87 83 82 83 84 81 82 86 93 96 97 94 88 86 87 87 82 79 78 80 82 87 77 76 81 77 82 79 78
90 85 74 76 73 75 73 74 82 97 97 97 96 96 90 82 79 87 86 86 88 88 91 96 95 91 92 90 88 86 80 77 80 79 82 80 77 76 75 74 74 75 71
77 74 75 77 82 82 78 71 76 76 72 79 88 89 90 86 76 72 75 73 81 84 88 92 92 84 86 89 89 88 84 81 79 79 74 75 74 76 74 71 72 72 73
81 78 77 75 75 81 81 77 73 74 72 67 66 70 77 78 76 72 70 67 71 80 82 86 87 81 77 79 82 83 85 81 73 80 74 70 69 70 72 71 71 72 71
86 83 84 83 79 75 77 74 72 69 71 71 69 71 69 67 64 64 62 61 64 69 74 83 83 75 73 74 72 76 87 90 80 84 73 72 70 72 74 69 68 73 70